Location: Alando
(42.3054°N, 9.2895°E)
Time: 13:04:33
(UTC+00:00)

YAOGAN 1 - Pass Details

Date: 09 April 2020
Orbit: 618 x 620 km, 97.9° (Epoch: 26 May)

Event Time Altitude Azimuth Distance (km) Brightness Sun altitude
Rises 18:30:59 0° 186° (S) 2,882 5.9 -6.7°
Reaches altitude 10° 18:33:18 10° 195° (SSW) 1,981 5.1 -7.1°
Maximum altitude 18:37:17 36° 262° (W) 979 4.3 -7.8°
Drops below altitude 10° 18:41:19 10° 330° (NNW) 1,997 6.0 -8.5°
Sets 18:43:39 0° 339° (NNW) 2,908 6.7 -8.9°
